Location: Ferchesar
(52.6477°N, 12.4298°E)
Time: 04:57:40
(UTC+02:00)

Vanguard 3 - Pass Details

Date: 04 March 2021
Orbit: 508 x 3262 km, 33.3° (Epoch: 15 April)

Event Time Altitude Azimuth Distance (km) Brightness Sun altitude
Rises 16:54:43 0° 245° (WSW) 7,184 14.5 8.0°
Reaches altitude 10° 17:00:27 10° 238° (WSW) 6,005 13.8 7.1°
Maximum altitude 17:15:12 34° 184° (S) 3,537 10.7 5.0°
Drops below altitude 10° 17:25:22 10° 125° (SE) 4,128 10.4 3.5°
Sets 17:28:28 0° 116° (ESE) 4,766 10.6 3.1°
